FENGYUN 1C DEB, 37591

Orbit data source: Space-Track

FENGYUN 1C DEB, 37591 is space debris in SSO originally from a launch on Mon, 10 May 1999 UTC launched from the Taiyaun Space Center, China (TSC). Fengyun 1C debris stems from the Chinese weather satellite Fengyun-1C, which was intentionally destroyed by a Chinese anti-satellite missile in 2007. This event dramatically increased the amount of space debris, with thousands of trackable fragments posing hazards to satellites and human spaceflight. The Fengyun 1C debris cloud has become a focal point in discussions about space sustainability and the need for international regulations to prevent the creation of new debris.

Loading next visibility...
Identifier
37591, 1999-025EKK
Orbit
SSO
Country
Flag of CNCN / PRC
Related business
Manufacturer
Unknown
Mission
Spacecraft
Bus & Motor
Unknown
Mass
Unknown
Launch date (UTC)
1999-05-10 (27 years ago)
Launch vehicle
Unknown
Launch site
Taiyaun Space Center, China (TSC)
Object type
Payload
Rocket body
Debris
Shape & HBR
Unknown shape, 0.1 m
Radar Cross Section
Small (<0.1 m²)

Expand to show TLE details & history
Last TLE update: 9 hours ago

TLE from 9 hours ago
0 FENGYUN 1C DEB
1 37591U 99025EKK 26258.10435479  .00013836  00000-0  26454-2 0  9990
2 37591  98.4048 212.5920 0057993 219.4669 200.7497 14.62908406704933
Epoch: 2026-09-15T02:30Z
TLE epoch observation values (Epoch: 2026-09-15T02:30:16.253Z)
Latitude
59.033°
Longitude
166.7729°
Altitude
732.121 km
Speed
7.474 km/s
True Right ascension
13h 13m 39s
True Declination
58° 52' 50"
Sunlit
Object was in daylight at epoch
Visualization orbit readout
Latitude
Unknown
Longitude
Unknown
Altitude
Unknown
Speed
Unknown
Apparent Right ascension
Unknown
Apparent Declination
Unknown
Sunlit
N/A
Visualization observer readout
Local Sidereal Time
03:44:05
Azimuth
Unknown
Elevation
Unknown
Doppler factor
Unknown
Orbital elements
Apogee altitude
721.823 km
Perigee altitude
639.948 km
Semi-major axis
7,059.022 km
Eccentricity
0.0058
Inclination
98.4048°
RAAN
212.592°
Arg. of periapsis
219.4669°
True anomaly
200.51585°
Mean anomaly
200.7497°
Eccentric anomaly
200.63261°
Mean motion
3.65954 °/min
Orbital period
98.37 mins
BSTAR
0.0026454
Loading maneuver chart data...
Computing Atmospheric mass density...

Documentation

Showing up to 5 results
|